Wind_Speed
41 44 42 39 38 34 37 45 47 42 45 46 46 44 46 46 42 43 47 49 50 48 51 52 54 57 58 57 51 53 54 55 55 53 46 43 44 47 50 50 53 54 58 60 63 63 62 56 59
44 45 43 47 45 46 51 48 47 49 43 47 49 47 52 54 51 51 50 51 52 52 53 56 58 60 58 53 51 54 56 58 53 44 41 42 45 45 49 54 59 62 64 65 65 66 63 59 60
46 42 40 43 46 50 53 50 50 46 45 47 52 49 54 56 57 56 55 54 55 57 58 58 61 59 54 53 54 57 58 60 51 44 46 49 52 53 56 64 63 64 67 66 66 65 60 58 61
49 51 49 49 49 51 54 60 54 53 51 51 53 56 59 62 61 60 60 60 60 60 63 65 63 57 53 56 57 60 61 53 49 46 48 54 59 64 68 66 64 62 63 63 62 58 56 57 61
51 52 52 55 55 56 57 58 57 56 55 53 57 59 61 63 65 61 62 63 63 62 65 68 62 57 58 58 61 64 56 53 50 53 58 60 65 69 69 63 60 59 59 55 52 52 53 56 60
55 54 53 52 56 58 59 60 59 57 54 56 58 60 67 65 68 64 64 63 65 65 70 69 61 57 57 60 64 64 57 56 57 60 63 65 64 61 58 57 56 55 54 51 50 51 51 54 60
60 59 55 57 57 58 61 58 56 58 60 59 63 66 65 66 70 70 67 66 68 71 70 65 60 61 58 64 64 60 58 61 65 65 61 56 54 53 51 53 53 51 53 52 51 51 51 52 59
60 59 60 56 62 57 58 61 63 65 64 63 68 66 65 66 70 70 68 68 71 75 68 64 64 64 63 65 61 56 63 67 63 56 55 54 51 52 51 48 47 49 49 52 52 53 54 53 58
67 63 63 66 67 64 65 65 63 64 64 65 65 64 63 65 67 71 70 68 75 71 69 66 66 68 67 63 57 63 69 60 55 53 52 51 49 50 51 47 43 43 47 52 53 53 55 55 57
67 65 65 74 73 70 67 68 69 66 65 68 63 64 65 63 65 66 68 74 70 68 68 68 69 67 65 62 62 68 61 57 54 52 51 47 46 46 46 47 47 47 49 52 54 55 53 56 57
72 62 71 71 70 65 69 70 70 69 64 70 61 65 68 66 63 65 69 70 68 69 69 68 69 65 63 61 66 62 55 54 54 52 48 46 46 45 45 43 46 48 49 50 53 56 56 56 59
79 68 73 72 75 70 71 69 72 65 67 66 61 64 63 66 65 66 69 66 66 67 67 69 66 63 62 65 63 54 54 56 53 51 47 44 41 40 41 43 45 46 48 50 53 55 57 59 60
80 77 77 74 79 78 74 71 71 68 72 63 62 63 64 65 65 69 70 65 66 67 68 68 63 62 63 64 55 53 57 57 54 51 45 41 40 40 40 40 40 41 42 44 47 49 51 54 57
83 78 77 77 76 71 70 74 67 70 71 64 64 63 67 66 69 69 67 66 65 66 70 64 62 61 64 58 52 57 59 55 52 45 42 40 38 38 37 38 39 41 41 41 42 42 45 47 50
80 79 80 80 76 72 78 68 71 72 69 63 64 67 69 68 64 66 64 66 63 66 66 63 60 62 60 52 57 61 56 53 47 42 40 40 40 39 36 34 32 34 34 35 34 36 37 40 45
91 80 71 69 76 77 80 60 67 72 68 63 66 70 64 63 63 63 61 64 63 67 62 61 60 62 55 53 63 57 51 48 39 39 39 38 36 32 29 28 27 28 28 31 33 35 37 41 46
77 68 68 67 68 76 78 69 64 71 65 64 67 66 61 60 62 61 61 61 63 63 63 57 61 59 55 56 61 53 46 39 39 38 34 30 27 24 23 23 24 27 30 32 35 37 39 40 40
74 78 77 74 77 83 75 64 68 75 70 66 66 66 60 58 60 60 59 60 62 59 55 55 59 56 55 59 56 48 42 39 37 32 26 23 20 18 21 25 29 33 36 34 34 34 35 34 32
85 87 83 79 79 82 76 69 65 69 70 68 65 61 60 56 57 56 58 58 58 53 51 57 55 54 56 57 51 44 40 37 32 27 22 20 23 25 29 34 34 33 30 30 28 27 25 25 24
80 78 75 76 75 77 77 72 65 65 66 63 61 61 57 55 56 55 54 58 51 47 52 55 52 53 56 53 44 40 38 34 28 21 20 24 26 30 35 36 31 29 25 21 19 17 17 21 23
70 66 71 76 78 76 74 68 61 62 63 59 60 59 55 55 53 52 56 47 44 45 52 50 53 54 53 45 43 38 35 27 22 20 22 24 28 32 37 30 28 24 16 11 10 12 13 14 16
62 72 73 69 67 63 68 54 57 62 57 57 58 56 54 52 50 51 42 38 42 46 49 50 54 52 46 41 36 35 26 23 18 23 26 28 33 35 30 27 21 11 7 5 5 6 9 11 15
64 73 71 64 59 56 55 39 53 56 56 59 54 50 51 49 47 38 34 37 41 44 47 48 50 50 43 38 32 29 22 19 20 24 28 32 34 29 25 20 7 3 1 1 3 5 8 13 15
70 65 57 53 52 43 41 34 50 58 55 50 49 50 47 45 34 31 34 38 41 43 45 45 46 45 36 32 30 24 20 16 22 27 33 27 26 24 19 9 3 3 1 4 6 6 10 12 15
53 49 48 45 40 30 37 33 53 52 43 44 46 44 43 30 26 30 32 38 39 41 43 45 42 37 31 29 26 20 13 17 23 29 25 25 26 19 10 6 7 7 8 10 10 11 11 14 18
52 52 45 39 31 34 35 35 51 40 36 40 40 34 24 21 26 28 32 35 37 40 42 41 38 32 30 28 21 12 12 19 26 21 23 26 19 11 8 10 11 13 11 12 14 14 15 16 21
54 43 46 32 22 36 31 38 44 33 35 34 25 18 19 22 26 27 28 32 38 37 39 36 32 29 27 22 13 7 12 24 25 17 20 22 16 9 12 13 15 14 13 14 17 18 19 22 29
53 49 30 23 26 31 37 42 43 28 26 20 15 18 19 22 26 27 25 33 33 36 38 34 28 25 22 17 5 5 14 25 22 16 20 21 13 11 13 13 15 17 15 15 21 21 23 24 35
50 37 31 24 31 40 41 37 38 28 19 14 16 19 23 22 23 21 26 28 32 35 32 26 24 21 18 11 2 6 15 27 23 15 20 21 16 13 14 13 14 15 18 18 22 22 25 29 30
55 43 35 30 39 42 38 38 30 17 19 18 20 20 22 20 19 19 26 28 27 28 25 24 21 18 14 6 5 4 15 20 28 17 17 18 17 16 14 12 13 17 19 24 23 22 29 30 32
Wind_Direction
257 262 262 259 257 268 271 279 291 292 297 296 306 308 311 309 311 309 309 310 313 313 309 305 308 308 306 307 305 304 305 304 303 297 285 278 277 270 267 270 270 273 271 274 275 273 271 260 243
255 261 264 258 251 253 264 285 287 288 293 291 298 306 312 311 309 310 309 311 313 316 313 312 308 306 306 306 305 306 305 306 302 291 284 278 277 279 275 277 277 273 271 269 269 271 268 257 238
257 260 263 262 262 264 268 276 282 286 288 291 291 301 307 310 307 308 310 313 317 319 316 311 309 307 309 304 306 307 305 304 295 285 287 284 286 283 282 285 281 271 270 266 266 267 261 251 240
254 252 262 265 264 263 269 278 279 288 288 290 291 300 300 306 312 308 310 313 317 318 316 315 313 311 306 309 309 306 304 297 287 289 287 291 291 291 288 283 277 271 271 264 263 258 253 247 244
258 258 264 266 269 271 273 276 276 284 288 288 294 298 298 300 307 306 307 313 316 317 313 315 316 310 308 308 311 306 302 304 301 298 296 292 290 289 285 280 275 272 271 262 256 251 247 244 243
261 258 264 267 269 273 272 276 280 284 288 291 292 294 296 304 305 304 306 311 315 313 311 314 314 310 310 311 310 308 307 308 303 298 294 289 286 284 279 277 275 270 265 259 255 251 248 241 240
263 260 265 269 270 274 274 277 279 285 287 287 286 288 298 303 302 302 306 311 311 311 310 312 311 310 314 312 312 311 308 306 302 298 295 289 285 282 278 279 269 266 261 257 255 254 252 247 238
263 260 266 271 273 275 281 282 280 285 286 287 285 291 298 299 300 303 306 311 311 309 310 312 309 312 315 313 312 311 310 307 299 294 293 290 286 284 282 279 265 263 259 256 255 255 254 250 243
259 261 265 273 272 276 280 281 285 287 287 288 289 296 296 296 300 304 306 310 311 309 312 311 311 312 315 314 311 310 307 303 299 297 294 289 283 280 279 278 270 262 258 257 256 256 252 249 246
265 263 264 271 274 275 280 282 284 287 287 286 294 297 295 295 302 303 306 308 310 310 311 311 312 312 318 314 314 310 307 304 302 297 294 289 284 278 274 271 269 266 261 259 258 255 253 248 246
265 266 266 270 273 277 281 284 286 284 288 284 295 293 294 298 301 304 305 306 310 312 311 310 309 317 316 313 315 312 307 308 304 297 292 287 286 279 274 271 265 262 260 259 257 255 252 249 246
265 265 267 267 273 277 280 282 280 284 283 283 293 290 292 296 299 302 302 305 309 309 309 308 314 317 314 315 313 310 310 309 304 298 295 294 289 284 278 274 271 266 261 258 255 253 253 251 249
265 266 264 267 273 276 277 272 276 284 280 289 291 288 291 293 298 302 300 304 307 310 308 311 316 312 315 315 314 313 313 311 306 302 301 296 294 288 282 277 273 270 266 263 259 254 250 248 248
264 264 267 270 273 272 272 269 278 275 281 291 289 287 290 294 296 297 299 303 306 307 308 315 310 313 315 317 315 317 314 311 308 307 303 300 297 291 287 282 278 273 268 262 257 254 252 249 248
261 263 265 269 267 267 264 269 272 274 281 283 285 285 289 292 295 295 300 301 303 305 309 311 311 315 316 317 320 317 313 311 308 308 306 304 297 291 285 278 272 268 263 260 256 250 249 246 242
263 268 269 266 264 262 263 265 272 270 277 281 280 283 287 291 293 294 300 299 302 305 310 311 312 317 318 321 321 315 314 310 311 308 303 297 294 290 288 285 279 274 268 263 259 258 255 250 244
265 270 264 260 257 257 261 264 266 271 274 276 276 282 289 292 290 295 297 297 302 306 310 314 316 319 322 318 319 315 312 313 310 305 299 297 294 290 285 283 283 282 281 277 269 265 259 253 248
257 256 258 258 258 262 266 268 263 266 268 275 280 285 287 289 289 292 292 296 303 306 312 316 318 318 322 319 317 314 315 311 304 299 295 296 290 292 294 295 291 288 286 278 273 266 261 254 247
257 262 263 262 260 265 271 272 264 267 273 275 279 281 284 285 286 289 292 296 301 306 312 319 318 320 320 319 317 315 312 305 300 299 305 300 304 308 307 301 296 295 290 282 273 260 257 252 244
257 261 261 257 258 263 265 268 267 268 269 275 274 277 282 282 283 286 290 295 301 307 314 317 317 320 318 318 315 313 307 303 301 305 305 307 313 314 312 308 306 300 289 271 262 251 243 242 238
259 259 256 259 260 264 266 269 268 267 267 272 271 274 276 278 283 286 290 296 302 310 314 316 316 313 318 318 312 308 308 308 305 309 306 319 316 316 316 314 312 301 288 268 259 249 241 234 229
258 254 254 258 265 269 272 270 264 261 262 263 264 268 274 279 280 282 291 299 307 313 313 313 310 317 318 313 312 310 313 313 318 317 316 319 317 318 318 321 313 308 281 267 241 230 217 209 204
251 257 261 269 273 272 274 270 258 254 252 255 262 269 271 274 276 286 296 304 312 309 309 311 312 317 314 311 311 311 313 320 327 329 330 325 321 322 328 328 343 302 253 233 194 189 187 176 173
254 264 270 271 271 272 258 244 249 247 249 252 259 262 266 271 279 292 300 310 304 305 310 309 315 316 312 309 309 310 317 329 330 335 338 335 330 333 334 357 28 64 92 134 115 139 155 158 157
257 262 265 264 266 245 239 240 245 246 246 248 253 254 263 270 285 294 309 300 301 308 310 317 317 315 310 308 309 310 323 339 344 342 342 336 338 339 5 48 79 103 115 116 118 128 144 146 151
243 247 256 264 262 219 229 217 242 242 240 244 247 254 258 278 284 291 302 298 303 311 315 312 312 314 307 312 309 314 353 6 356 351 340 339 348 11 51 87 101 102 112 120 120 127 131 144 148
238 243 243 261 243 221 218 192 236 225 231 239 241 252 265 273 275 296 296 300 304 311 310 311 313 308 308 310 313 358 20 13 3 1 355 6 11 64 86 95 101 96 108 117 115 124 127 131 137
238 238 259 257 228 213 199 207 233 219 221 225 242 250 266 278 278 296 293 296 305 302 309 307 314 308 305 309 321 42 31 21 16 14 22 24 46 83 95 95 105 102 115 121 125 128 131 134 140
236 238 238 231 208 203 202 211 215 217 217 230 240 257 275 272 277 288 290 299 299 302 307 317 313 306 305 309 151 56 43 34 23 26 40 39 59 93 98 95 106 109 122 128 131 127 128 127 125
225 227 231 215 203 209 209 215 209 204 225 233 246 261 261 260 269 274 290 295 305 316 318 317 310 306 305 292 163 68 57 41 29 30 43 45 58 84 96 103 113 109 120 137 139 130 133 127 124
Height
10932 10931 10932 10930 10930 10930 10930 10929 10929 10931 10929 10927 10924 10919 10918 10918 10918 10918 10915 10912 10910 10907 10906 10902 10897 10892 10887 10884 10880 10876 10870 10865 10858 10854 10852 10851 10850 10849 10849 10848 10848 10848 10848 10845 10843 10846 10848 10851 10854
10925 10923 10924 10923 10921 10921 10919 10926 10925 10925 10923 10920 10917 10913 10909 10908 10908 10906 10904 10904 10901 10899 10896 10892 10887 10882 10876 10872 10867 10862 10857 10851 10845 10841 10839 10838 10835 10834 10832 10831 10831 10830 10830 10832 10831 10829 10828 10831 10836
10917 10917 10916 10915 10914 10914 10912 10918 10919 10918 10917 10913 10910 10906 10901 10900 10897 10896 10894 10893 10890 10886 10883 10880 10875 10869 10864 10859 10855 10850 10845 10839 10833 10829 10825 10822 10820 10819 10816 10814 10813 10813 10811 10812 10814 10813 10813 10815 10820
10907 10908 10909 10909 10908 10906 10904 10909 10911 10910 10908 10906 10903 10899 10895 10890 10888 10884 10881 10880 10878 10876 10871 10867 10862 10858 10849 10844 10841 10837 10832 10827 10822 10817 10813 10809 10804 10801 10798 10796 10794 10792 10792 10794 10796 10797 10797 10798 10803
10899 10900 10900 10901 10900 10900 10899 10899 10904 10904 10901 10900 10894 10891 10887 10883 10880 10876 10871 10868 10865 10863 10859 10853 10848 10844 10837 10830 10826 10822 10817 10812 10808 10803 10799 10795 10789 10783 10779 10775 10774 10774 10774 10775 10778 10781 10783 10784 10787
10890 10892 10894 10893 10891 10892 10891 10893 10895 10896 10894 10893 10887 10882 10876 10875 10870 10866 10863 10860 10857 10853 10847 10842 10837 10831 10825 10818 10813 10807 10801 10796 10792 10787 10781 10775 10771 10766 10762 10760 10757 10756 10758 10759 10762 10766 10770 10772 10777
10880 10883 10886 10886 10881 10882 10882 10885 10888 10887 10886 10884 10880 10877 10873 10869 10859 10856 10853 10850 10847 10842 10837 10832 10826 10819 10813 10807 10799 10792 10787 10781 10774 10768 10761 10754 10750 10748 10747 10745 10743 10742 10743 10745 10748 10751 10755 10758 10762
10869 10874 10878 10876 10871 10872 10874 10876 10876 10877 10877 10875 10872 10872 10869 10863 10851 10847 10843 10840 10837 10831 10826 10821 10814 10806 10800 10793 10785 10780 10774 10766 10756 10751 10746 10740 10735 10732 10731 10730 10729 10729 10730 10731 10734 10737 10741 10745 10748
10858 10867 10868 10862 10860 10863 10864 10865 10865 10866 10864 10861 10861 10864 10862 10857 10848 10837 10834 10831 10826 10820 10814 10808 10800 10792 10786 10780 10774 10767 10760 10749 10740 10736 10732 10727 10723 10719 10717 10716 10716 10717 10716 10717 10719 10723 10725 10729 10732
10845 10857 10858 10845 10850 10854 10854 10855 10853 10857 10856 10846 10853 10850 10850 10849 10842 10832 10825 10822 10816 10809 10803 10796 10789 10782 10772 10767 10760 10752 10742 10733 10727 10722 10717 10715 10711 10708 10705 10703 10703 10703 10704 10704 10705 10707 10710 10713 10715
10831 10851 10841 10842 10836 10847 10843 10843 10843 10844 10845 10837 10847 10841 10836 10835 10830 10826 10819 10812 10805 10799 10793 10786 10780 10770 10761 10755 10746 10737 10728 10721 10715 10709 10705 10702 10698 10694 10693 10692 10691 10691 10691 10692 10692 10691 10693 10698 10701
10824 10836 10829 10831 10824 10834 10832 10833 10826 10836 10831 10832 10837 10834 10830 10823 10818 10816 10811 10804 10799 10792 10785 10778 10769 10759 10752 10744 10734 10726 10716 10709 10703 10697 10692 10688 10683 10681 10679 10677 10676 10675 10675 10676 10676 10678 10678 10680 10683
10819 10821 10815 10821 10817 10820 10821 10816 10818 10821 10811 10826 10827 10822 10818 10814 10809 10806 10800 10794 10788 10782 10775 10767 10756 10751 10743 10732 10723 10713 10706 10698 10691 10684 10678 10675 10670 10667 10665 10663 10661 10660 10659 10660 10660 10662 10664 10665 10667
10794 10805 10807 10808 10808 10801 10806 10802 10814 10804 10804 10814 10812 10811 10807 10804 10800 10796 10791 10784 10778 10772 10764 10755 10748 10741 10730 10721 10712 10703 10695 10687 10679 10672 10666 10661 10658 10655 10652 10650 10649 10647 10646 10646 10647 10648 10649 10651 10653
10781 10791 10796 10800 10793 10792 10776 10803 10800 10794 10796 10805 10801 10798 10798 10795 10790 10786 10781 10775 10769 10761 10754 10746 10738 10730 10720 10710 10701 10693 10685 10677 10669 10662 10656 10651 10647 10643 10641 10639 10638 10636 10637 10635 10635 10636 10636 10637 10639
10766 10776 10785 10782 10775 10772 10760 10800 10788 10777 10787 10794 10790 10786 10788 10783 10781 10776 10771 10766 10759 10751 10744 10736 10728 10718 10708 10699 10693 10683 10676 10668 10661 10654 10648 10642 10637 10634 10631 10630 10629 10627 10625 10624 10622 10622 10623 10624 10624
10757 10766 10766 10763 10755 10748 10751 10782 10779 10765 10778 10785 10779 10777 10777 10773 10770 10766 10761 10754 10748 10742 10734 10726 10716 10707 10699 10692 10684 10675 10668 10660 10653 10646 10640 10635 10631 10627 10625 10622 10619 10616 10613 10611 10608 10607 10608 10609 10610
10733 10733 10739 10746 10740 10732 10747 10770 10767 10755 10767 10770 10767 10767 10767 10765 10758 10756 10750 10744 10739 10731 10723 10717 10707 10698 10690 10683 10674 10666 10659 10653 10646 10640 10635 10630 10625 10621 10617 10614 10609 10605 10600 10598 10596 10595 10594 10594 10597
10707 10718 10729 10729 10726 10722 10738 10750 10758 10752 10754 10758 10757 10755 10755 10755 10748 10746 10741 10735 10730 10722 10715 10706 10698 10689 10683 10676 10667 10658 10653 10647 10640 10633 10629 10624 10619 10614 10609 10603 10598 10593 10588 10586 10583 10583 10584 10585 10587
10696 10709 10715 10710 10714 10718 10722 10734 10743 10741 10741 10749 10746 10743 10744 10743 10739 10736 10732 10727 10721 10713 10706 10698 10690 10683 10676 10667 10659 10653 10647 10639 10633 10628 10624 10618 10612 10606 10600 10593 10586 10581 10577 10574 10574 10574 10576 10577 10580
10684 10691 10688 10694 10695 10707 10715 10726 10730 10729 10730 10736 10733 10733 10734 10733 10731 10726 10722 10718 10711 10704 10697 10690 10682 10677 10668 10660 10654 10647 10639 10633 10628 10623 10617 10612 10606 10598 10591 10583 10577 10572 10569 10568 10567 10569 10571 10572 10575
10671 10660 10668 10681 10690 10702 10701 10722 10717 10709 10720 10721 10720 10723 10724 10725 10721 10717 10713 10709 10702 10696 10689 10683 10677 10669 10661 10655 10649 10640 10633 10628 10623 10618 10613 10606 10598 10590 10582 10575 10570 10567 10565 10565 10565 10566 10567 10569 10570
10650 10647 10659 10674 10683 10689 10690 10706 10692 10691 10705 10703 10711 10715 10714 10714 10710 10708 10706 10700 10694 10688 10683 10676 10669 10661 10655 10650 10642 10635 10630 10624 10619 10614 10607 10598 10589 10582 10576 10570 10567 10566 10565 10564 10564 10565 10566 10567 10569
10636 10644 10654 10662 10668 10678 10673 10683 10673 10678 10689 10697 10701 10702 10705 10703 10702 10701 10697 10691 10686 10682 10676 10670 10661 10654 10650 10644 10637 10631 10627 10622 10617 10610 10601 10592 10584 10578 10572 10570 10567 10566 10566 10566 10565 10567 10568 10568 10570
10629 10635 10643 10649 10658 10664 10660 10670 10657 10670 10683 10688 10690 10694 10695 10696 10695 10693 10687 10683 10679 10674 10668 10660 10653 10650 10645 10639 10633 10628 10624 10620 10614 10606 10598 10590 10582 10575 10572 10570 10569 10569 10569 10569 10569 10570 10571 10573 10575
10619 10623 10634 10642 10648 10651 10651 10658 10652 10668 10678 10679 10683 10686 10688 10689 10687 10683 10680 10677 10672 10667 10660 10654 10650 10646 10641 10635 10630 10626 10623 10618 10611 10603 10596 10587 10580 10576 10574 10572 10572 10573 10574 10574 10573 10573 10576 10577 10580
10609 10626 10622 10638 10644 10645 10649 10650 10648 10664 10665 10672 10677 10680 10682 10682 10678 10676 10673 10670 10666 10661 10655 10651 10646 10642 10638 10632 10627 10625 10622 10616 10608 10603 10595 10586 10580 10579 10577 10577 10576 10577 10578 10578 10579 10579 10580 10583 10586
10606 10611 10628 10634 10638 10640 10644 10647 10647 10657 10663 10667 10671 10674 10676 10674 10671 10670 10668 10666 10661 10656 10651 10645 10641 10638 10634 10629 10626 10625 10621 10615 10608 10603 10595 10588 10583 10582 10581 10582 10582 10582 10584 10584 10584 10585 10588 10590 10593
10599 10613 10622 10626 10633 10635 10637 10641 10644 10650 10658 10663 10667 10671 10671 10667 10665 10665 10664 10661 10657 10652 10646 10641 10638 10635 10630 10627 10626 10624 10621 10615 10610 10605 10597 10592 10588 10585 10585 10586 10586 10587 10588 10589 10590 10592 10595 10598 10602
10586 10601 10612 10616 10622 10627 10630 10631 10642 10649 10651 10657 10662 10664 10664 10661 10661 10661 10660 10657 10652 10646 10640 10638 10635 10632 10627 10624 10624 10624 10620 10617 10613 10606 10601 10597 10593 10590 10589 10590 10591 10591 10594 10596 10597 10600 10603 10606 10611